| time (UTC) | temp F | wind direction | speed MPH | gust MPH | rain 1hr in | rain 24hr in | rain mn in | humidity % | barometer mb |
| 20260505031550 | 53 | 290 | 0.0 | 5.0 | 0.01 | 0.01 | 0.01 | 87 | 1013.9 |
| 20260505030051 | 53 | 271 | 1.0 | 6.0 | 0.00 | 0.00 | 0.00 | 87 | 1014.1 |
| 20260505024606 | 54 | 257 | 2.0 | 6.0 | 0.00 | 0.00 | 0.00 | 86 | 1014.2 |
| 20260505023050 | 54 | 274 | 1.0 | 5.0 | 0.00 | 0.00 | 0.00 | 87 | 1014.3 |
| 20260505021603 | 54 | 280 | 1.0 | 8.0 | 0.00 | 0.00 | 0.00 | 87 | 1013.9 |
| 20260505020049 | 54 | 330 | 2.0 | 4.0 | 0.00 | 0.00 | 0.00 | 88 | 1014.1 |
| 20260505014548 | 55 | 276 | 1.0 | 6.0 | 0.00 | 0.00 | 0.00 | 88 | 1014.1 |
| 20260505013048 | 55 | 300 | 1.0 | 6.0 | 0.00 | 0.00 | 0.00 | 87 | 1014.4 |
| 20260505011554 | 56 | 288 | 0.0 | 3.0 | 0.00 | 0.00 | 0.00 | 86 | 1014.4 |
| 20260505010047 | 56 | 316 | 1.0 | 5.0 | 0.00 | 0.00 | 0.00 | 85 | 1014.4 |
| 20260505004548 | 56 | 289 | 2.0 | 5.0 | 0.00 | 0.00 | 0.00 | 82 | 1014.5 |
| 20260505003046 | 57 | 276 | 2.0 | 5.0 | 0.00 | 0.00 | 0.00 | 80 | 1014.6 |
| 20260505001546 | 58 | 269 | 1.0 | 4.0 | 0.00 | 0.00 | 0.00 | 82 | 1014.5 |
| 20260505000046 | 58 | 274 | 2.0 | 5.0 | 0.00 | 0.00 | 0.00 | 78 | 1014.4 |
| 20260504234544 | 59 | 284 | 1.0 | 3.0 | 0.00 | 0.00 | 0.00 | 76 | 1014.3 |
| 20260504233056 | 60 | 297 | 1.0 | 4.0 | 0.00 | 0.00 | 0.00 | 74 | 1014.3 |
| 20260504231544 | 60 | 293 | 2.0 | 6.0 | 0.00 | 0.00 | 0.00 | 72 | 1014.1 |
| 20260504230044 | 61 | 46 | 0.0 | 2.0 | 0.00 | 0.00 | 0.00 | 73 | 1014.2 |
| 20260504224543 | 61 | 238 | 1.0 | 3.0 | 0.00 | 0.00 | 0.00 | 74 | 1014.3 |
| 20260504223049 | 61 | 305 | 1.0 | 5.0 | 0.00 | 0.00 | 0.00 | 73 | 1014.3 |
| 20260504221547 | 62 | 339 | 2.0 | 7.0 | 0.00 | 0.00 | 0.00 | 72 | 1014.4 |
| 20260504220101 | 62 | 304 | 1.0 | 6.0 | 0.00 | 0.00 | 0.00 | 72 | 1014.4 |
| 20260504214543 | 63 | 129 | 2.0 | 7.0 | 0.00 | 0.00 | 0.00 | 70 | 1014.4 |
| 20260504213040 | 63 | 15 | 1.0 | 5.0 | 0.00 | 0.00 | 0.00 | 71 | 1014.3 |
| 20260504211539 | 62 | 288 | 1.0 | 5.0 | 0.00 | 0.00 | 0.00 | 71 | 1014.3 |
| 20260504210039 | 62 | 318 | 1.0 | 6.0 | 0.00 | 0.00 | 0.00 | 71 | 1014.5 |
| 20260504204556 | 62 | 168 | 2.0 | 5.0 | 0.00 | 0.00 | 0.00 | 71 | 1014.5 |
| 20260504203039 | 61 | 327 | 0.0 | 5.0 | 0.00 | 0.00 | 0.00 | 72 | 1014.4 |
| 20260504201537 | 61 | 74 | 2.0 | 5.0 | 0.00 | 0.00 | 0.00 | 73 | 1014.4 |
| 20260504200042 | 61 | 283 | 2.0 | 8.0 | 0.00 | 0.00 | 0.00 | 71 | 1014.6 |
| 20260504194540 | 61 | 308 | 2.0 | 6.0 | 0.00 | 0.00 | 0.00 | 70 | 1014.5 |
| 20260504193036 | 62 | 313 | 2.0 | 4.0 | 0.00 | 0.00 | 0.00 | 66 | 1014.3 |
| 20260504191538 | 64 | 289 | 0.0 | 4.0 | 0.00 | 0.00 | 0.00 | 65 | 1014.4 |
| 20260504190037 | 65 | 114 | 1.0 | 3.0 | 0.00 | 0.00 | 0.00 | 64 | 1014.5 |
| 20260504184534 | 63 | 70 | 0.0 | 2.0 | 0.00 | 0.00 | 0.00 | 69 | 1014.6 |
| 20260504183029 | 61 | 97 | 0.0 | 4.0 | 0.00 | 0.00 | 0.00 | 71 | 1014.5 |
| 20260504181526 | 62 | 345 | 0.0 | 4.0 | 0.00 | 0.00 | 0.00 | 69 | 1014.5 |
| 20260504180025 | 63 | 46 | 2.0 | 4.0 | 0.00 | 0.00 | 0.00 | 69 | 1014.6 |
| 20260504174524 | 62 | 70 | 0.0 | 3.0 | 0.00 | 0.00 | 0.00 | 71 | 1014.4 |
| 20260504173022 | 62 | 39 | 1.0 | 4.0 | 0.00 | 0.00 | 0.00 | 74 | 1014.2 |
| 20260504171520 | 60 | 71 | 2.0 | 6.0 | 0.00 | 0.00 | 0.00 | 75 | 1014.3 |
| 20260504081541 | 48 | 13 | 0.0 | 0.0 | 0.00 | 0.00 | 0.00 | 94 | 1013.9 |
| 20260504050008 | 52 | 127 | 0.0 | 1.0 | 0.00 | 0.00 | 0.00 | 87 | 1013.6 |
| 20260504044600 | 53 | 274 | 0.0 | 3.0 | 0.00 | 0.00 | 0.00 | 86 | 1013.5 |
| 20260504043100 | 54 | 295 | 1.0 | 3.0 | 0.00 | 0.00 | 0.00 | 85 | 1013.4 |
| 20260504041558 | 54 | 292 | 2.0 | 5.0 | 0.00 | 0.00 | 0.00 | 84 | 1013.4 |
| 20260504040057 | 55 | 314 | 1.0 | 5.0 | 0.00 | 0.00 | 0.00 | 82 | 1013.1 |
| 20260504034556 | 55 | 288 | 2.0 | 5.0 | 0.00 | 0.00 | 0.00 | 81 | 1013.1 |
| 20260504033059 | 56 | 302 | 2.0 | 4.0 | 0.00 | 0.00 | 0.00 | 78 | 1012.7 |